COSMOS 2572

导读

COSMOS 2572 是俄罗斯于2021年发射的一颗军用卫星,属于GLONASS导航系统的一部分。该卫星运行在中地球轨道,旨在增强俄罗斯的全球卫星导航能力。COSMOS 2572 具备高精度定位和通信功能,支持军事和民用应用。其发射体现了俄罗斯在太空领域的持续发展和对自主导航系统的重视。

基本信息
目录编号:
58435
目录名称:
COSMOS 2572
国际标识:
2023-182A
轨道中心:
EARTH
卫星名称:
COSMOS 2572
卫星全名:
--
卫星状态:
在轨 (已飞行962 天)
发射日期:
2023-11-25 UTC
国别 :
俄罗斯(独联体) (CIS)
星等 :
--
轨道信息
数据来源 国际轨道数据
星历时间: 2026-07-14T03:19:55+0800
12小时前
查看轨道信息
半长轴: 6680.171km
偏心率: 0.00157
轨道倾角: 96.681°
近地点辐角 181.335°
升交点赤经 298.451°
平近点角 178.789°
近地点: 291.546km
远地点: 312.522km
周期: 90.561分钟
每日圈数: 15.90089
详细信息
使用方式:
暂无
2D轨道图
3D轨道图
轨道高度分析图
轨道倾角分析图
轨道综合分析图
查看轨道综合分析图